User: anonymous   Login
Location: Asheville, NC
(35.6000°N, 82.5500°W)
Time: 08:13:00
(UTC-04:00)
Language:

QB50P2 - Orbit

View from above orbital plane
View from above orbital plane
View from above satellite
View from above satellite

Ground track
Ground track

The orbit data is extracted from the following two-line orbital elements,

1 40032U 14033Y   18198.82868242  .00000196  00000-0  27280-4 0  9996
2 40032  97.8991 112.8224 0013414  80.8514 279.4219 14.88282722221286
Epoch (UTC): 17 July 2018 19:53:18
Eccentricity: 0.0013414
inclination: 97.8991°
perigee height: 594 km
apogee height: 612 km
right ascension of ascending node: 112.8224°
argument of perigee: 80.8514°
revolutions per day: 14.88282722
mean anomaly at epoch: 279.4219°
orbit number at epoch: 22128

The dashed part of the orbit path shows where the satellite is in the earth's shadow,  

DLR